Cloud_Cover
100 100 100 90 70 62 14 5 9 3 28 4 0 0 17 0 2 35 26 73 87 100 100 99 64 59 38 12 5 5 5 0 1 1 0 0 0 0 5 5 5 10 46 100 100 100 100 85 94
99 100 100 77 61 44 5 0 5 0 0 0 0 0 0 0 0 9 7 7 97 98 5 16 100 100 87 19 58 9 1 2 0 0 1 1 3 14 28 35 5 49 100 100 100 100 100 100 100
99 100 100 51 5 5 1 53 34 4 4 0 16 0 0 2 3 5 11 85 98 100 54 64 100 100 73 5 5 2 1 0 0 0 0 0 5 5 76 5 5 72 65 36 83 99 100 100 100
100 100 55 13 5 4 0 0 0 3 0 0 0 0 0 0 5 7 99 100 100 100 99 99 100 100 68 1 12 5 5 0 1 0 2 4 0 4 5 4 5 12 8 61 37 25 100 100 100
100 100 94 5 5 0 0 2 2 1 0 0 0 0 0 0 4 10 93 97 56 19 80 10 100 71 2 5 5 5 0 7 3 8 0 1 5 5 5 5 4 97 66 55 91 100 100 100 84
100 100 90 49 5 0 4 2 5 0 0 0 0 3 4 4 0 5 27 58 0 5 19 2 71 6 5 5 5 4 5 10 3 2 1 7 15 18 28 5 5 11 65 100 86 100 100 29 83
100 100 62 76 60 5 32 12 4 0 4 0 0 0 2 0 0 0 3 0 0 9 19 2 7 6 0 5 6 10 14 2 3 0 2 5 5 87 100 100 94 91 100 100 100 100 100 98 100
100 100 66 88 88 83 12 5 5 1 0 0 0 0 5 0 0 0 0 0 1 17 2 1 0 0 0 0 0 7 1 13 99 100 100 78 11 92 100 88 100 100 100 100 100 100 100 100 64
100 100 17 18 38 68 88 59 63 44 2 2 0 0 0 0 0 0 0 0 19 25 4 5 0 0 0 0 3 4 4 26 51 75 82 100 100 100 100 57 100 100 58 98 100 92 80 7 89
100 95 23 31 48 2 8 7 1 1 0 0 3 0 0 0 0 0 0 0 1 10 1 5 4 5 3 6 11 59 67 90 100 100 100 100 89 98 100 100 97 98 100 100 100 75 100 29 5
100 92 60 63 100 5 0 5 5 39 3 0 0 0 0 0 0 0 0 0 0 0 0 4 48 12 80 99 99 81 100 100 100 100 100 100 100 100 100 76 90 77 100 100 100 88 100 99 5
99 89 43 100 36 12 6 5 8 10 31 0 0 0 0 0 0 0 0 0 0 0 0 0 17 45 54 90 88 71 95 100 100 100 80 100 99 90 65 97 91 93 100 95 100 13 100 5 5
94 100 22 100 82 11 36 68 4 2 2 4 5 1 0 0 0 0 0 0 0 0 0 0 0 0 2 52 100 100 54 88 93 67 82 33 71 53 75 82 95 83 100 100 100 100 86 57 5
38 4 8 37 3 8 5 7 99 100 77 5 63 90 37 0 0 0 0 0 0 0 0 0 0 0 0 0 70 100 100 100 100 99 100 100 100 100 100 67 100 100 96 98 100 100 89 48 16
8 6 0 0 5 0 3 9 94 5 7 5 0 6 19 87 2 5 13 0 0 0 0 0 0 0 0 0 0 0 0 1 63 27 10 100 100 100 100 100 100 100 100 100 100 98 100 59 36
100 77 26 5 6 5 22 29 98 90 67 57 1 31 100 31 65 8 8 12 5 0 0 1 0 0 0 0 0 0 0 0 0 5 5 5 5 12 89 100 94 100 100 100 100 100 71 100 69
86 95 52 60 26 10 29 66 9 8 3 10 2 8 98 100 100 100 100 57 80 95 82 45 0 6 2 4 0 0 0 0 2 5 5 3 19 83 12 8 10 32 74 100 100 94 100 100 100
100 66 45 100 93 5 7 5 74 18 1 0 0 16 85 82 100 100 100 96 86 9 86 13 59 5 5 4 0 0 0 1 8 5 5 5 8 5 6 6 18 78 81 100 69 89 91 95 97
100 58 98 69 100 62 6 11 5 91 60 2 2 5 5 14 92 100 100 100 100 97 88 5 7 8 100 92 5 5 4 56 0 2 4 24 98 21 20 6 8 57 100 100 100 100 100 99 98
100 88 91 100 58 87 5 65 41 37 5 20 49 10 48 80 99 100 100 100 100 100 14 5 5 18 43 65 7 3 1 6 14 25 7 4 99 100 100 100 100 100 100 100 100 100 100 100 100
100 64 89 100 99 99 86 17 53 100 99 34 32 28 38 96 92 90 94 98 100 97 92 96 86 100 98 94 17 17 100 100 57 46 85 54 100 100 100 100 100 100 100 100 100 91 100 96 68
100 100 100 98 100 99 96 96 100 96 56 27 5 17 39 87 100 100 98 82 61 78 92 84 100 55 37 55 93 80 94 98 94 98 74 98 98 100 90 100 100 100 100 100 100 85 69 81 83
100 73 96 100 100 100 80 100 92 86 100 100 8 83 70 94 89 100 97 100 100 100 100 49 51 100 100 72 93 100 100 100 100 100 85 100 95 100 100 100 100 100 99 100 100 98 100 100 95
100 100 100 98 90 100 83 100 100 69 86 100 64 100 100 100 98 96 100 100 100 100 100 99 90 100 39 34 79 80 100 100 100 100 100 100 96 95 96 96 95 81 82 95 90 78 99 97 100
100 83 26 93 100 86 6 71 55 47 66 100 100 90 100 83 100 100 100 100 100 100 100 100 98 78 8 78 34 69 86 99 100 100 100 100 100 100 100 80 73 45 80 94 97 97 100 100 100
100 100 64 99 94 58 79 69 46 44 82 99 100 85 89 100 100 100 100 100 100 100 100 100 100 100 100 77 77 54 98 100 100 100 100 100 100 100 100 98 100 100 100 100 100 100 100 100 100
0 4 33 80 99 79 55 38 20 61 86 100 100 75 100 100 100 100 100 100 100 100 100 100 100 100 100 100 100 100 100 100 100 100 100 100 100 100 97 95 100 100 100 100 100 100 100 100 100
0 0 0 0 1 0 2 16 29 40 1 5 50 97 65 100 100 100 100 100 100 100 100 100 100 100 100 100 100 100 100 100 100 100 100 100 100 100 100 99 98 74 53 99 100 100 100 100 85
0 0 0 0 0 0 0 0 0 0 0 0 31 60 93 100 100 100 100 100 100 100 100 100 100 100 100 100 100 100 100 100 100 100 100 100 100 100 100 100 99 10 4 28 14 22 7 68 97
0 0 0 0 0 5 5 0 0 0 0 0 84 86 100 100 100 100 100 100 100 100 100 100 100 100 100 100 100 100 100 100 100 100 100 100 100 98 92 30 23 4 0 0 4 30 99 100 100